Volver al catálogo

COSMOS 2251 DEB

ActivoLEO
NORAD 34579·DEBRIS·🇷🇺 Russia

Lanzado Jun 16, 1993 desde Plesetsk Cosmodrome

Loading…

Próximos Pases (próximas 24 horas)

TLE

ActualizadoSource: Space-Track

Época: Sep 14, 2026, 22:00 UTC

1 34579U 93036VR  26257.91686326  .00000891  00000-0  25646-3 0  9996
2 34579  74.0510  69.3711 0026090  69.9861  81.9229 14.46015496921654

Sigue COSMOS 2251 DEB en tiempo real con AllMySat

Download on the App Store